OneWeb SL0287

operational
NORAD ID: 49077 Int'l Des: 2021-075 Owner: ONEWEBN Country: UK Constellation: oneweb
LEOCIRCULARPOLARONEWEB_TYPE

关于 OneWeb SL0287

正在加载描述...

实时位置

正在加载3D地球...

即将过境

高度历史

Altitude vs Time

uPlot chart will show altitude changes over time

两行轨道根数

1 49077U 21075C 25258.20178124 .00000051 00000-0 98928-4 0 9995
2 49077 87.9051 60.5596 0002052 91.7326 268.4041 13.17646826197418
Epoch: Sep 15, 2025 • Age: 10 hours

当前状态

高度 1217.8 km
速度 7.24 km/s
星下点 -58.75°S, 21.64°E
发射日期 Aug 21, 2021
运行时间 4 years
类型 internet

技术详情

分类 Payload
质量 148.00 kg
干质量 140.00 kg
总质量 148.00 kg
长度 1.30 m
直径 1.00 m
跨度 5.00 m
形状 Trapezoid+2 pan
制造商 ONEWUS
平台类型 ARROW
阶段状态 In Orbit
所有者/国家 ONEWEBN/UK

大型星座

Loading constellations...